Temp
5 5 5 5 5 5 5 5 5 5 5 5 5 5 5 5 5 5 5 5 5 5 5 5 5 5 5 5 5 5 5 5 5 5 5 5 5 5 5 5 5 5 5 5 5 5 5 5 5 4 4 4 4 4 4 4 4 4 4 4 4 4 4 4 4 4 4 4 4 4 4 4 5 5 5 5 5 5 6 6 6 7 7 7 7 8
5 5 5 5 5 5 5 5 5 5 5 4 4 4 4 4 4 4 4 4 4 4 4 5 5 5 5 5 5 5 5 5 5 5 5 5 5 5 5 5 5 5 5 5 5 5 5 4 4 4 4 4 4 4 4 4 4 4 4 4 4 4 4 4 4 4 4 4 4 4 4 4 4 4 4 5 5 5 5 5 6 6 6 7 7 7
4 4 4 4 4 4 4 4 4 4 4 4 4 4 4 4 4 4 4 4 4 4 4 4 4 4 4 4 4 4 4 4 4 4 5 5 5 5 5 5 5 5 5 5 5 5 4 4 4 4 4 4 4 4 4 4 4 4 4 4 4 4 4 4 4 4 4 4 4 4 4 4 4 4 4 4 4 4 5 5 5 5 6 6 6 7
4 4 4 4 4 4 4 4 4 4 4 4 4 4 4 4 4 4 4 4 4 4 4 4 4 4 4 4 4 4 4 4 4 4 4 4 5 5 5 5 5 5 5 5 4 4 4 4 4 4 4 4 4 4 4 4 4 4 4 4 4 4 4 4 4 4 4 4 4 4 4 4 4 4 4 4 4 4 4 4 4 5 5 5 6 6
4 4 4 4 4 4 4 4 4 4 4 4 4 4 4 4 4 4 4 4 3 3 3 3 3 3 3 3 3 3 3 4 4 4 4 4 4 4 4 4 4 4 4 4 4 4 4 4 4 4 4 4 4 4 4 4 4 4 4 4 4 4 4 4 3 3 3 3 3 3 3 4 4 4 4 4 4 4 4 4 4 4 5 5 5 6
3 3 3 3 3 3 3 3 3 3 3 3 3 3 3 3 3 3 3 3 3 3 3 3 3 3 3 3 3 3 3 3 4 4 4 4 4 4 4 4 4 4 4 4 4 4 4 4 4 4 4 4 4 4 4 4 4 4 4 3 3 3 3 3 3 3 3 3 3 3 3 3 3 3 4 4 4 4 4 4 4 4 4 5 5 5
3 3 3 3 3 3 3 3 3 3 3 3 3 3 3 3 3 3 3 3 3 3 3 3 3 3 3 3 3 3 3 3 3 3 4 4 4 4 4 4 4 4 4 4 4 4 4 4 4 4 4 4 4 4 4 4 4 3 3 3 3 3 3 3 3 3 3 3 3 3 3 3 3 3 3 3 4 4 4 4 4 4 4 4 5 5
2 2 3 3 3 3 3 3 3 3 3 3 3 3 3 3 3 3 3 3 3 3 3 3 3 3 3 3 3 3 3 3 3 3 3 3 3 3 4 4 4 4 4 4 4 4 4 4 4 4 4 4 3 3 3 3 3 3 3 3 3 3 3 3 3 3 3 3 3 3 3 3 3 3 3 3 3 3 4 4 4 4 4 4 5 5
2 2 2 2 2 3 3 3 3 3 3 3 3 3 3 3 3 3 3 3 3 3 3 2 2 2 3 3 3 3 3 3 3 3 3 3 3 3 3 3 3 3 3 3 3 3 3 3 3 3 3 3 3 3 3 3 3 3 3 3 3 3 2 2 2 2 2 2 2 2 2 2 3 3 3 3 3 3 3 4 4 4 4 4 4 4
2 2 2 2 2 2 2 2 3 3 3 3 2 2 2 2 3 3 3 3 3 3 3 3 2 2 2 3 3 3 3 3 3 3 3 3 3 3 3 3 3 3 3 3 3 3 3 3 3 3 3 3 3 3 3 3 3 3 3 3 2 2 2 2 2 2 2 2 2 2 2 2 2 2 2 3 3 3 3 3 4 4 4 4 4 4
2 2 2 2 2 2 2 2 2 2 2 2 2 2 2 2 2 2 2 3 3 3 3 3 3 2 2 2 2 2 2 2 2 2 3 3 3 3 3 3 3 3 3 3 3 3 3 3 3 3 3 3 3 3 3 3 3 2 2 2 2 2 2 2 2 2 2 1 2 2 2 2 2 2 2 2 3 3 3 3 3 4 4 4 4 4
2 2 2 2 2 2 2 2 2 2 2 2 2 2 2 2 2 2 2 2 2 2 3 3 3 2 2 2 2 2 2 2 2 2 2 2 2 2 2 2 2 2 2 2 2 2 3 3 3 3 3 3 2 2 2 2 2 2 2 2 2 1 1 1 1 1 1 1 1 1 1 2 2 2 2 2 2 2 2 3 3 3 4 4 4 4
2 2 2 2 2 2 2 2 2 2 2 2 2 2 2 2 2 2 2 2 2 2 2 2 2 2 2 2 2 2 2 2 2 2 2 2 2 2 2 2 2 2 2 2 2 2 2 2 2 2 2 2 2 2 2 2 2 2 1 1 1 1 1 1 1 1 1 1 1 1 1 1 1 2 2 2 2 2 2 2 3 3 3 4 4 4
2 2 2 2 2 2 2 2 2 2 2 2 2 2 2 2 2 2 2 2 2 2 2 2 2 2 2 2 2 2 2 2 2 2 2 2 2 2 2 2 2 2 2 2 2 2 2 2 2 2 2 2 2 2 2 1 1 1 1 1 1 1 1 1 1 1 1 1 1 1 1 1 1 1 2 2 2 2 2 2 3 3 3 4 4 4
2 2 2 2 2 2 2 2 2 2 2 2 2 2 2 2 2 2 2 2 2 2 2 2 2 2 2 2 2 2 2 2 2 2 2 2 2 2 2 2 2 2 1 1 1 1 2 1 1 1 1 1 1 1 1 1 1 1 1 1 1 1 1 1 1 1 1 1 1 1 1 1 1 1 1 2 2 2 2 2 2 3 3 4 4 4
2 2 1 1 2 2 2 2 2 2 2 2 2 2 2 2 2 2 2 2 2 2 2 2 2 2 2 2 2 2 2 1 1 1 1 1 2 2 2 1 1 1 1 1 1 1 1 1 1 1 1 1 1 1 1 1 1 1 1 0 0 1 1 1 1 1 1 1 1 1 1 1 1 1 1 1 2 2 2 2 2 2 3 3 4 4
1 1 1 1 2 2 2 2 2 2 2 2 2 2 2 2 2 2 2 2 2 2 2 2 2 2 2 2 2 2 2 1 1 1 1 1 1 1 1 1 1 1 1 1 1 1 1 1 1 1 1 1 1 1 1 1 1 0 0 0 0 0 0 0 0 0 1 1 1 1 1 1 1 1 1 1 1 1 2 2 2 2 3 3 3 4
1 1 1 1 1 2 2 2 2 2 2 2 2 2 2 2 2 2 2 2 2 2 2 2 2 2 2 2 3 3 2 2 1 1 1 1 1 1 1 1 1 1 1 1 1 1 1 1 1 1 1 1 1 1 1 1 0 0 0 0 0 0 0 0 0 0 1 1 1 1 1 1 1 1 1 1 1 1 1 2 2 2 2 3 3 3
1 1 1 1 1 1 2 2 2 2 2 2 2 2 2 2 2 2 1 1 1 1 2 2 2 2 2 2 3 3 2 2 1 1 1 1 1 1 1 1 1 1 1 1 1 1 1 1 1 1 1 1 1 1 0 0 0 0 0 0 0 0 0 0 0 0 0 0 1 1 1 1 1 1 1 1 1 1 1 1 1 2 2 2 3 3
2 2 1 1 1 1 1 2 2 2 2 2 2 2 2 2 2 1 1 1 1 1 1 1 2 2 2 2 2 2 2 2 1 0 0 0 0 1 1 1 0 0 0 1 1 1 1 1 1 1 1 1 1 0 0 0 0 0 0 0 0 0 0 0 0 0 0 0 0 0 0 0 1 1 1 1 1 1 1 1 1 2 2 2 3 3
3 3 3 2 2 2 2 2 2 2 2 2 2 2 1 1 1 1 1 1 1 1 1 1 1 2 2 2 2 2 2 2 1 0 0 0 0 1 1 1 0 0 0 0 1 1 1 1 1 1 1 0 0 0 0 0 0 0 0 0 0 0 0 0 0 0 0 0 0 0 0 0 0 0 1 1 1 1 1 1 1 1 2 2 2 3
3 3 3 3 2 2 2 2 2 2 2 2 2 2 2 2 2 2 2 2 1 1 1 1 2 2 2 2 2 2 2 2 1 1 1 1 1 1 1 1 0 0 0 0 0 0 0 0 0 0 0 0 0 0 0 0 0 0 0 0 0 0 0 0 0 0 0 0 0 0 0 0 0 0 0 0 1 1 1 1 1 1 1 2 2 2
2 2 2 2 2 2 2 2 2 2 2 2 2 2 2 2 2 2 2 2 2 2 2 2 2 2 2 2 1 2 1 1 1 1 1 0 1 1 1 1 0 0 0 0 0 0 0 0 0 0 0 0 0 0 0 0 0 0 0 0 0 0 0 0 0 0 0 0 0 0 0 0 0 0 0 0 0 0 0 1 1 1 1 1 2 2
2 2 2 2 2 2 2 2 2 2 2 1 1 2 2 2 2 2 2 2 2 1 1 1 1 1 1 1 1 1 1 1 1 1 0 0 1 1 1 1 1 0 0 0 0 0 0 0 0 0 0 0 -0 -0 -0 -0 -0 0 0 0 0 0 0 0 0 0 0 0 0 0 0 0 0 0 0 0 0 0 0 0 1 1 1 1 1 2
2 2 2 2 2 2 2 2 2 2 2 1 1 1 1 1 1 1 1 1 1 1 1 1 1 1 1 1 1 1 1 1 1 1 0 1 1 1 1 1 1 1 0 1 0 0 0 0 0 0 -0 -0 -0 -0 -0 -0 -0 -0 0 0 0 0 0 0 0 0 0 0 0 0 0 0 0 0 0 0 0 0 0 0 0 1 0 1 1 1
2 2 2 2 2 2 2 2 2 2 2 2 2 2 2 2 1 1 1 1 1 1 1 1 1 1 2 2 1 1 1 1 1 0 0 1 1 1 1 1 1 1 1 1 1 0 0 0 0 0 -0 -0 -0 -0 -0 -0 -0 -0 -0 -0 -0 0 0 0 0 0 0 0 0 0 0 0 0 0 0 0 0 0 0 0 0 0 0 0 1 1
3 3 3 3 3 3 3 3 3 3 3 3 3 3 2 2 2 1 1 1 1 1 0 1 1 1 2 2 2 2 2 1 1 1 0 0 0 1 1 1 1 1 1 1 1 0 0 0 0 0 -0 -0 -0 -0 -0 -0 -0 -0 -0 -0 -0 -0 -0 -0 0 0 0 0 0 0 0 0 0 0 0 0 0 0 0 0 0 0 0 0 0 1
3 3 3 3 3 3 3 3 3 3 3 3 3 3 3 3 3 2 1 1 1 0 0 0 1 1 1 2 2 2 2 2 1 1 1 0 0 1 1 1 1 1 1 0 0 0 0 0 0 0 0 -0 -0 -0 -0 -0 -0 -0 -0 -0 -0 -0 -0 -0 -0 -0 -0 0 0 0 0 0 0 0 0 0 -0 -0 -0 0 0 0 0 0 0 0
3 3 3 3 3 3 3 3 3 3 3 3 3 3 3 3 3 3 2 2 2 1 0 1 1 1 1 2 2 2 2 2 2 1 1 0 0 0 1 1 1 0 0 0 0 0 0 0 0 0 -0 -0 -0 -0 -0 -0 -0 -0 -0 -0 -0 -0 -0 -0 -0 -0 -0 -0 -0 -0 -0 -0 -0 -0 -0 -0 -0 -0 -0 -0 0 0 0 0 0 0
2 2 2 2 2 2 2 2 2 2 3 3 3 3 3 3 3 3 3 2 2 2 1 1 1 1 1 2 2 1 2 2 2 2 1 0 0 0 1 1 0 0 0 0 -0 -0 0 0 0 0 -0 -0 -0 -0 -0 -0 -0 -0 -0 -0 -0 -0 -0 -0 -0 -0 -0 -0 -0 -0 -0 -0 -0 -0 -0 -0 -0 -0 -0 -0 -0 0 0 -0 -0 0
2 2 2 2 2 2 2 2 2 2 2 2 2 2 2 2 2 2 2 2 2 2 2 1 1 1 1 1 1 1 2 2 3 2 1 1 0 1 1 1 1 0 0 0 -0 -0 -0 0 0 1 0 0 0 -0 -0 -0 -0 -0 -0 -0 -0 -0 -0 -0 -0 -0 -0 -0 -1 -1 -1 -1 -1 -1 -1 -1 -1 -1 -0 -0 -0 0 0 0 -0 0
3 2 2 2 2 1 1 2 2 2 2 2 2 2 2 2 2 2 2 2 2 2 2 2 2 2 1 1 1 2 2 3 3 2 2 1 0 0 1 0 0 0 0 0 -0 -0 -0 -0 0 1 1 0 0 0 0 -0 -0 -0 -0 -0 -0 -0 -0 -0 -0 -0 -0 -1 -1 -1 -1 -1 -1 -1 -1 -1 -1 -1 -1 -1 -0 -0 0 0 0 0
3 2 2 2 2 2 2 2 2 2 2 2 2 2 2 2 2 1 1 1 1 1 1 1 2 2 1 1 1 1 2 2 2 2 2 1 0 0 0 0 0 0 0 -0 -0 -0 -0 -0 0 0 0 0 0 0 -0 -0 -0 -0 -0 -0 -0 -0 -0 -0 -0 -0 -1 -1 -1 -1 -1 -1 -1 -1 -1 -1 -1 -1 -1 -1 -0 -0 0 0 0 0
2 2 2 2 2 2 2 2 2 2 2 2 2 2 2 2 1 1 1 1 1 1 1 1 1 1 1 1 1 1 2 2 2 2 1 1 0 0 0 -0 -0 -0 -0 -0 -0 -0 -0 -0 -0 -0 -0 -0 -0 -0 -0 -0 -0 -0 -0 -0 -0 -0 -0 -0 -0 -1 -1 -1 -1 -1 -1 -1 -1 -1 -1 -2 -2 -1 -1 -1 -1 -0 0 0 0 0
2 2 2 2 1 1 1 1 1 1 1 1 1 1 1 1 1 1 1 1 1 1 1 1 1 1 1 1 1 1 2 2 2 2 1 0 -0 -0 -0 -0 -0 -0 -0 -0 -0 -1 -1 -1 -1 -1 -1 -0 -0 -0 -0 -0 -0 -0 -0 -0 -0 -0 -0 -0 -0 -1 -1 -1 -1 -1 -1 -1 -1 -1 -1 -2 -2 -2 -1 -1 -1 -0 0 0 0 0
1 1 1 1 1 0 0 0 0 0 1 1 1 1 1 1 1 1 1 1 1 1 1 1 1 1 1 1 1 1 2 2 2 1 1 0 -0 -0 -0 -0 -0 -0 -0 -0 -0 -0 -1 -1 -1 -1 -1 -1 -1 -0 -0 -0 -0 -0 -0 -0 -1 -1 -0 -0 -0 -0 -1 -1 -1 -1 -1 -1 -1 -1 -1 -2 -2 -1 -1 -1 -1 -0 -0 0 0 0
-0 -0 -0 -0 -0 -0 -0 -0 -0 0 0 0 0 1 1 1 1 1 1 1 1 1 1 1 1 1 1 1 1 1 1 1 1 1 1 0 -0 -0 -0 -0 -0 -0 -0 -0 -0 -0 -1 -1 -1 -1 -1 -1 -1 -0 -0 -0 -0 -0 -0 -0 -0 -0 -0 -0 -0 -0 -1 -1 -1 -1 -1 -1 -1 -1 -1 -1 -1 -1 -1 -1 -1 -1 -1 -0 0 0
-0 -0 -0 -0 -0 -0 -0 -0 -0 -0 -0 -0 -0 -0 0 0 0 0 0 0 0 0 1 1 1 1 1 1 1 1 1 1 1 1 1 0 0 -0 -0 -0 -0 -0 -0 -0 -0 -0 -1 -1 -1 -1 -1 -1 -0 -0 -0 -0 -0 -0 -0 -0 -0 -0 -0 -0 -0 -0 -1 -1 -1 -1 -1 -1 -1 -1 -1 -1 -1 -1 -1 -1 -1 -1 -1 -1 -0 0
-0 -0 -0 -0 -0 -0 -0 -0 -1 -1 -1 -1 -1 -1 -1 -0 -0 -0 -0 -0 -0 -0 -0 -0 -0 -0 0 1 1 1 1 1 1 1 0 0 0 -0 -0 -0 -0 -0 -1 -1 -1 -1 -1 -1 -1 -1 -1 -1 -1 -0 -0 -0 -0 -0 -1 -1 -1 -1 -1 -0 -0 -0 -0 -1 -1 -1 -1 -1 -1 -1 -1 -1 -1 -1 -1 -1 -1 -1 -1 -1 -1 -0
-0 -0 -0 -0 -0 -0 -1 -1 -1 -1 -1 -1 -1 -1 -1 -1 -1 -1 -1 -1 -1 -0 -0 -0 -0 -0 -0 -0 -0 0 0 0 0 0 0 0 0 -0 -0 -0 -1 -1 -1 -1 -1 -1 -1 -1 -1 -1 -0 -0 -0 -1 -0 -0 -0 -0 -1 -1 -1 -1 -1 -0 -0 -0 -0 -1 -1 -1 -1 -1 -1 -1 -1 -1 -1 -1 -1 -1 -1 -1 -1 -1 -1 -0
-1 -1 -1 -1 -1 -1 -1 -1 -1 -1 -1 -1 -1 -1 -1 -1 -1 -1 -1 -1 -1 -1 -1 -0 -1 -1 -1 -1 -1 -0 -0 -0 0 0 0 -0 -0 0 0 -0 -0 -1 -1 -1 -1 -1 -1 -1 -1 -1 -1 -1 -1 -1 -1 -1 -1 -0 -1 -1 -1 -1 -1 -1 -0 -0 -1 -1 -1 -1 -1 -1 -1 -1 -1 -1 -1 -1 -1 -1 -1 -1 -1 -1 -1 -1
-1 -1 -1 -1 -1 -1 -1 -1 -1 -1 -1 -1 -1 -1 -1 -1 -1 -1 -1 -1 -1 -1 -1 -1 -1 -1 -1 -1 -1 -1 -0 -0 -0 -0 -0 -0 -0 0 0 -0 -0 -1 -1 -1 -1 -1 -1 -1 -1 -1 -1 -1 -1 -1 -1 -1 -1 -1 -1 -1 -1 -1 -1 -1 -1 -1 -1 -1 -1 -1 -1 -1 -1 -1 -1 -1 -1 -1 -1 -1 -1 -1 -1 -1 -1 -1
-2 -2 -2 -2 -2 -2 -2 -2 -2 -2 -2 -2 -2 -2 -2 -2 -2 -2 -2 -1 -1 -1 -1 -1 -1 -1 -1 -1 -1 -1 -0 -0 -0 -0 -0 -0 -0 -0 -0 -0 -0 -1 -1 -1 -1 -1 -1 -1 -1 -1 -1 -1 -1 -1 -1 -1 -1 -1 -1 -1 -1 -1 -1 -1 -1 -1 -1 -1 -1 -1 -1 -1 -1 -1 -1 -1 -1 -1 -1 -1 -1 -1 -1 -1 -1 -0
-2 -2 -2 -2 -2 -2 -2 -2 -2 -2 -2 -2 -2 -2 -2 -2 -2 -2 -2 -2 -1 -1 -1 -1 -1 -1 -1 -1 -1 -1 -0 -0 -0 -0 -0 -0 -0 -0 -0 -0 -0 -1 -1 -1 -1 -1 -1 -1 -1 -1 -1 -1 -1 -1 -1 -1 -1 -1 -1 -1 -1 -1 -1 -1 -1 -1 -1 -1 -1 -1 -1 -1 -1 -1 -1 -1 -1 -1 -1 -1 -1 -1 -1 -1 -1 -1
-2 -2 -2 -2 -2 -2 -2 -2 -2 -2 -2 -2 -2 -2 -2 -2 -2 -2 -2 -2 -2 -1 -1 -1 -1 -1 -1 -1 -1 -0 -0 -0 -0 -0 -0 -0 -0 -0 -0 -0 -1 -1 -1 -1 -1 -1 -1 -1 -1 -1 -1 -1 -2 -2 -1 -1 -1 -1 -1 -1 -1 -1 -1 -1 -1 -1 -1 -1 -1 -1 -1 -1 -1 -1 -1 -1 -1 -1 -1 -1 -1 -1 -1 -1 -1 -1
-2 -2 -2 -2 -2 -2 -2 -2 -2 -2 -2 -2 -2 -2 -2 -2 -2 -2 -2 -2 -2 -1 -1 -1 -1 -1 -1 -1 -0 -0 -0 -0 -0 -0 -0 -1 -1 -1 -1 -1 -1 -1 -1 -1 -1 -1 -1 -1 -1 -1 -2 -2 -2 -2 -2 -1 -1 -1 -1 -1 -1 -1 -1 -1 -1 -1 -1 -1 -1 -1 -1 -1 -1 -1 -2 -2 -1 -1 -1 -1 -1 -1 -1 -1 -1 -1
-2 -2 -2 -2 -2 -2 -2 -2 -2 -2 -2 -2 -2 -2 -2 -2 -2 -2 -2 -2 -2 -1 -1 -1 -1 -1 -1 -1 -1 -0 -0 -0 -0 -0 -0 -1 -1 -1 -1 -1 -1 -1 -1 -1 -1 -1 -1 -1 -1 -2 -2 -2 -2 -2 -2 -2 -2 -2 -2 -1 -1 -1 -2 -1 -1 -1 -1 -1 -1 -1 -1 -1 -1 -2 -2 -2 -2 -2 -2 -1 -1 -1 -1 -1 -1 -1
-2 -2 -2 -2 -2 -2 -2 -2 -2 -2 -2 -2 -2 -2 -2 -2 -2 -2 -2 -2 -2 -2 -1 -1 -1 -1 -1 -1 -1 -0 -0 -0 -0 -0 -0 -1 -1 -1 -1 -1 -1 -1 -1 -1 -1 -1 -1 -1 -2 -2 -2 -2 -2 -2 -2 -2 -2 -2 -2 -2 -2 -2 -2 -2 -2 -1 -1 -1 -1 -1 -1 -1 -1 -2 -2 -2 -2 -2 -2 -2 -1 -1 -1 -1 -1 -1
-2 -2 -2 -2 -2 -2 -2 -2 -3 -3 -3 -3 -3 -3 -2 -2 -2 -2 -2 -2 -2 -2 -2 -1 -1 -1 -1 -1 -1 -1 -1 -1 -1 -1 -1 -1 -1 -1 -1 -1 -1 -1 -1 -1 -1 -1 -1 -2 -2 -2 -2 -2 -2 -2 -2 -2 -2 -2 -2 -2 -2 -2 -2 -2 -2 -2 -1 -1 -1 -1 -1 -1 -1 -1 -2 -2 -2 -2 -2 -2 -1 -1 -1 -1 -1 -1
-3 -3 -3 -3 -3 -3 -3 -3 -3 -3 -3 -3 -3 -3 -3 -2 -2 -2 -2 -2 -2 -2 -2 -2 -1 -1 -1 -1 -1 -1 -1 -1 -1 -1 -1 -1 -1 -1 -2 -2 -2 -2 -2 -2 -2 -2 -2 -2 -2 -2 -2 -2 -2 -2 -2 -2 -2 -2 -2 -2 -2 -2 -2 -2 -2 -2 -2 -2 -1 -1 -1 -1 -1 -1 -2 -2 -2 -2 -2 -2 -2 -1 -1 -1 -1 -1
-3 -3 -3 -3 -3 -3 -3 -3 -3 -3 -3 -3 -3 -2 -2 -2 -2 -2 -2 -2 -2 -2 -2 -2 -2 -2 -1 -1 -1 -1 -1 -1 -1 -1 -1 -1 -1 -2 -2 -2 -2 -2 -2 -2 -2 -2 -2 -2 -2 -2 -2 -2 -2 -2 -2 -2 -2 -2 -2 -2 -2 -2 -2 -2 -2 -2 -2 -2 -2 -2 -2 -2 -2 -2 -2 -2 -2 -2 -2 -2 -2 -2 -2 -1 -2 -2
Height
744 744 744 745 745 743 741 742 742 741 740 740 740 739 739 738 738 737 737 737 736 735 735 734 733 733 732 732 731 731 731 730 730 730 729 729 728 728 727 727 727 726 726 726 726 725 725 725 725 725 724 724 723 723 722 722 722 721 721 720 720 720 719 719 718 718 717 717 717 716 716 715 715 714 714 713 713 712 712 711 711 711 710 710 710 710
743 743 743 743 743 741 739 740 740 740 739 738 737 737 736 736 735 735 735 734 734 733 733 732 731 730 730 730 729 729 728 728 728 727 727 726 726 726 725 725 725 724 724 724 723 723 723 723 722 722 722 721 721 720 720 720 719 719 719 718 718 717 717 716 716 715 715 715 715 714 714 713 713 712 712 711 710 710 709 709 708 708 708 707 707 706
742 741 740 741 741 740 738 738 738 738 737 736 735 735 735 734 733 732 732 731 731 731 730 730 729 728 728 727 727 726 726 726 725 725 725 725 724 724 723 723 722 722 721 721 721 720 720 720 720 720 719 719 719 718 718 717 717 716 716 716 715 715 715 714 714 713 713 712 712 711 711 711 710 710 710 709 709 708 707 706 706 705 705 705 704 704
741 740 739 739 739 738 737 736 736 736 735 734 733 733 732 731 731 730 730 729 729 728 728 727 727 726 725 725 724 724 724 723 723 723 722 722 722 721 721 720 720 720 719 719 719 718 718 718 718 717 717 716 716 715 715 715 714 714 714 713 713 713 712 712 711 711 711 710 710 709 709 708 708 708 707 707 707 706 705 705 704 703 703 702 702 701
740 739 738 738 737 735 735 735 734 734 733 732 731 730 730 729 728 728 727 727 726 726 725 725 724 724 723 722 722 721 721 721 721 720 720 720 720 719 719 718 718 717 717 717 716 716 716 715 715 715 714 714 714 713 713 712 712 711 711 711 710 710 710 710 709 709 708 708 707 707 706 706 705 705 705 705 704 704 704 703 702 701 701 700 700 699
739 739 737 737 735 734 732 732 732 732 731 730 729 728 727 727 726 725 725 725 724 723 723 722 722 722 721 720 720 719 719 719 718 718 718 717 717 717 716 716 715 715 715 715 714 714 713 713 713 712 712 711 711 710 710 710 710 709 709 709 708 708 708 707 707 706 706 705 705 705 704 704 703 703 702 702 701 701 701 701 700 700 699 698 697 697
737 736 736 735 733 732 731 730 730 730 729 728 726 725 725 725 724 723 723 722 721 721 720 720 720 719 719 718 718 717 717 716 716 715 715 715 715 714 714 714 713 713 713 712 712 711 711 711 710 710 710 709 709 708 708 708 707 707 707 706 706 706 705 705 705 704 704 703 703 702 702 701 700 700 700 700 699 699 699 698 698 697 697 696 695 695
735 734 734 733 731 730 728 727 727 727 727 726 725 723 722 722 722 721 720 720 719 719 718 718 717 717 716 716 715 715 714 714 713 713 712 712 712 712 711 711 711 710 710 710 710 709 709 709 708 708 707 707 707 706 706 706 705 705 705 704 704 704 703 703 702 702 701 701 700 700 700 699 698 698 697 697 697 696 696 696 695 695 695 694 694 693
733 732 731 730 730 728 726 725 724 725 725 725 723 722 721 720 719 719 718 717 717 717 716 715 715 714 713 713 713 712 712 711 711 710 710 710 709 709 709 709 708 708 708 708 707 707 707 706 706 706 705 705 705 704 704 704 703 703 703 702 702 702 701 701 700 700 699 699 698 698 697 696 696 695 695 695 694 694 694 693 693 693 693 692 692 691
731 730 728 727 727 726 725 723 721 722 723 723 721 720 720 719 717 716 715 715 714 714 714 713 712 711 710 710 710 710 710 709 709 708 708 707 707 707 706 706 706 705 705 705 705 705 704 704 704 703 703 703 702 702 702 701 701 701 701 700 700 700 699 699 698 698 697 696 696 695 695 694 694 693 693 692 692 692 691 691 691 691 690 690 690 690
729 727 726 725 724 724 723 721 720 720 720 720 719 718 717 717 716 715 713 711 711 711 711 711 710 709 708 708 707 707 707 707 706 705 705 705 705 705 705 704 704 703 703 703 702 702 702 702 701 701 701 701 700 700 700 700 699 699 699 698 698 698 697 697 696 695 695 694 694 693 692 692 691 691 690 690 690 690 689 689 689 688 688 688 688 688
725 725 724 722 721 720 720 719 718 718 718 718 717 716 714 714 714 713 712 710 708 708 708 708 707 707 706 706 705 705 705 704 704 703 703 703 703 702 702 702 701 701 700 700 700 700 700 699 699 699 699 699 698 698 698 697 697 697 696 696 696 695 695 695 694 693 693 692 692 691 690 690 689 689 688 688 687 687 687 687 686 686 686 686 686 686
723 722 721 720 719 718 717 716 716 716 716 715 715 713 711 711 711 711 710 708 706 706 706 705 704 704 704 704 704 703 703 702 701 701 700 700 700 700 700 699 699 698 698 698 697 697 697 696 696 696 696 696 696 696 695 695 695 695 694 694 694 693 693 692 692 691 691 690 690 689 688 688 687 686 686 685 685 685 685 685 684 684 684 684 684 684
719 719 718 717 716 715 715 715 715 714 713 712 711 710 709 709 709 708 707 705 704 704 704 703 702 701 701 701 701 701 700 700 699 699 698 698 698 698 698 697 696 696 696 695 695 694 694 694 694 694 694 694 693 693 693 693 692 692 692 692 691 691 690 690 690 689 689 688 687 687 686 685 685 684 684 683 683 683 683 682 682 682 682 682 682 682
717 716 715 714 713 713 713 713 712 711 710 709 709 708 707 707 706 706 705 704 702 702 702 701 699 698 698 698 698 698 698 698 697 696 696 695 695 695 696 695 694 694 694 694 693 692 691 692 692 691 691 691 690 690 690 690 690 690 690 690 689 689 689 688 688 687 687 686 685 685 684 684 683 682 682 681 681 681 680 680 680 680 680 679 680 680
715 714 713 712 711 710 710 710 709 708 707 706 706 706 706 705 704 704 703 702 700 700 700 699 697 696 695 695 695 696 696 695 695 694 694 692 692 693 694 694 693 692 691 691 690 690 689 690 690 689 689 688 688 688 688 688 688 688 688 688 687 687 686 686 685 685 685 684 683 683 682 682 681 680 680 679 679 679 678 678 678 677 677 677 677 677
712 712 711 710 709 708 707 707 707 706 705 705 705 704 704 703 702 701 701 700 699 698 698 697 696 694 692 691 692 693 693 693 692 692 691 690 690 690 691 692 691 690 689 689 688 687 687 687 687 687 686 686 686 686 686 686 686 686 686 685 685 685 685 684 684 683 682 682 681 681 680 680 679 679 678 677 677 676 676 676 676 675 675 675 675 675
710 710 709 708 707 705 705 705 705 704 704 703 702 701 701 700 700 699 698 698 697 696 695 695 694 693 691 689 689 690 691 691 690 690 689 688 688 688 689 690 689 688 687 686 686 685 685 685 685 685 684 684 684 684 684 684 684 684 684 684 683 683 682 682 681 681 680 680 680 679 679 678 677 677 676 675 675 675 674 674 674 674 673 673 673 673
707 707 706 705 704 703 703 703 702 702 701 700 700 699 699 698 697 697 696 695 695 694 694 693 692 690 690 688 687 688 690 689 689 688 688 687 686 686 687 687 687 686 685 684 683 683 683 683 683 683 682 682 682 682 682 682 682 682 682 682 681 681 680 680 680 679 679 678 677 677 676 676 675 675 675 674 673 673 672 672 672 672 672 671 671 671
704 704 703 703 702 701 700 700 699 699 699 698 698 697 696 695 695 695 694 693 692 692 691 691 690 688 687 686 686 686 688 688 688 687 686 685 684 684 685 685 685 684 683 681 681 681 681 681 681 680 680 680 680 680 680 680 680 680 680 680 679 679 679 678 678 677 676 676 675 675 675 674 674 673 673 672 672 671 671 670 670 670 670 670 669 669
702 701 700 700 700 699 697 696 696 696 695 695 695 695 694 693 692 692 691 690 690 689 689 688 687 686 685 685 684 685 686 686 686 685 685 684 683 682 683 683 683 682 680 679 678 679 679 679 679 678 678 678 678 678 678 678 678 678 678 678 677 677 676 676 675 675 675 674 674 673 673 672 672 671 671 670 670 670 669 669 668 668 668 668 667 667
700 698 697 697 697 696 694 693 693 693 693 693 693 692 691 690 690 689 688 688 687 687 686 685 684 683 683 683 682 682 684 684 684 684 683 682 680 680 680 681 681 680 678 677 676 676 677 677 676 675 675 676 676 676 676 676 676 676 676 676 675 675 675 674 674 673 673 672 672 671 671 670 670 669 669 669 668 668 668 667 667 666 666 666 666 665
697 695 694 694 694 693 692 691 690 690 690 690 690 689 688 687 686 685 685 685 684 683 682 681 681 680 680 680 680 680 681 681 682 682 681 680 677 676 678 679 679 678 676 675 674 675 675 675 674 673 673 674 674 674 674 674 674 674 674 674 674 673 673 672 672 671 671 670 670 670 669 669 668 668 667 667 666 666 665 665 665 665 665 664 664 664
694 693 692 691 690 690 689 688 688 687 687 687 687 685 685 684 683 682 681 681 680 680 679 679 678 678 678 677 677 677 678 679 680 680 680 678 675 675 675 677 677 675 674 672 673 673 673 672 671 671 671 671 672 672 672 672 672 672 672 672 672 671 671 670 670 670 669 669 668 668 667 667 666 666 665 665 665 664 664 664 664 663 663 663 663 663
691 690 689 688 687 687 686 686 685 685 685 684 683 682 681 680 680 679 678 678 678 678 677 677 676 676 675 675 675 675 675 676 677 677 677 676 674 672 673 674 675 673 671 670 671 671 671 670 669 669 669 669 670 670 670 670 670 670 670 670 670 670 669 669 668 668 668 667 667 666 666 665 665 664 664 663 663 662 662 662 662 662 662 661 661 661
688 687 685 685 684 684 684 683 683 682 682 681 680 679 678 677 677 676 676 676 676 676 676 676 675 674 673 673 673 672 672 673 674 674 674 674 672 670 670 671 672 671 670 669 669 670 670 668 667 667 667 667 667 668 668 668 669 669 668 668 668 668 667 667 667 666 666 665 665 665 664 664 663 663 662 662 661 661 660 660 660 660 660 660 660 660
685 684 683 682 681 681 680 680 680 680 680 679 678 677 676 675 675 674 674 674 674 675 675 674 673 672 672 672 671 670 670 670 671 671 671 671 670 669 667 668 670 669 668 667 667 668 668 667 666 665 665 665 665 666 666 666 666 666 666 666 666 666 665 665 665 665 664 664 663 663 662 662 661 661 660 660 660 659 659 659 658 658 658 659 658 658
682 681 680 680 679 678 677 677 677 677 677 676 676 675 675 674 673 672 671 672 672 673 673 673 672 671 670 670 669 668 668 668 668 668 668 669 668 666 665 666 667 667 667 666 665 665 666 665 664 664 664 664 664 664 664 664 665 665 665 665 664 664 664 664 663 663 663 662 662 661 661 660 660 660 659 659 658 658 657 657 657 657 657 657 657 656
678 677 677 676 675 675 675 675 675 675 675 674 674 674 673 673 671 670 670 670 670 670 670 670 670 670 669 667 666 666 665 665 665 665 666 667 665 663 662 664 665 665 665 665 664 664 663 662 662 662 662 662 662 662 662 662 662 662 663 663 662 662 662 662 661 661 661 660 660 660 660 659 659 658 658 657 657 656 656 655 655 655 655 655 655 655
675 674 673 673 672 672 672 672 672 672 672 671 671 671 671 671 670 669 668 669 669 669 668 668 667 667 666 666 665 664 662 661 662 663 664 664 662 660 660 662 663 663 664 664 664 662 660 660 660 660 660 660 660 660 660 660 660 660 660 660 660 660 660 660 660 660 659 659 659 659 658 658 657 657 656 656 655 655 654 654 654 653 653 653 653 653
673 672 671 670 670 670 670 670 669 669 669 669 669 669 669 669 668 667 667 667 667 667 666 665 665 665 665 664 663 661 658 658 659 660 661 661 659 658 659 660 660 660 662 663 663 661 659 657 657 658 658 658 658 658 658 658 659 659 659 659 659 659 658 658 658 658 658 658 657 657 657 656 656 655 655 654 654 653 653 652 652 652 651 651 651 652
670 670 669 668 668 667 667 667 667 666 666 666 666 666 666 666 666 665 665 665 665 665 665 664 663 662 662 662 660 658 656 655 656 658 658 658 656 655 656 658 658 658 659 660 660 660 658 656 655 655 656 656 656 656 656 657 657 657 657 657 657 657 657 657 657 656 656 656 656 655 655 655 655 654 654 653 653 652 651 651 651 650 650 650 650 650
668 667 666 665 665 665 665 665 665 664 664 664 664 663 664 664 664 664 664 663 663 663 663 662 661 660 659 658 657 655 654 654 655 656 656 655 655 654 655 655 656 656 657 658 658 658 657 655 654 655 655 655 655 655 655 655 655 656 656 656 655 655 655 655 655 655 655 655 654 654 654 654 653 653 653 652 651 651 650 650 649 649 649 649 649 649
666 665 665 665 665 664 664 664 663 663 663 662 662 662 662 662 662 662 662 661 661 661 660 660 659 657 656 655 654 652 651 651 653 654 654 654 653 653 653 654 654 655 655 656 656 656 655 654 654 654 654 654 654 654 654 654 654 654 655 655 654 654 654 654 654 654 654 653 653 653 652 652 652 652 651 651 650 650 649 648 648 647 647 647 647 648
667 667 666 665 665 665 664 664 664 663 662 662 661 661 661 660 660 660 660 659 658 658 657 656 656 655 653 652 651 650 649 649 650 652 652 651 651 651 651 651 652 653 654 654 654 654 654 653 653 653 653 653 652 652 652 653 653 653 653 653 653 653 653 653 653 653 652 652 652 651 651 651 650 650 650 650 649 649 648 647 647 646 646 646 646 646
668 667 667 666 666 665 665 664 664 663 662 661 661 660 660 659 658 657 657 656 655 655 654 653 652 652 651 651 650 648 647 647 648 649 649 649 649 649 649 649 650 650 651 652 652 652 652 651 651 652 652 652 651 650 651 651 651 651 651 651 651 651 651 651 652 651 651 651 650 650 650 650 650 649 649 649 648 648 647 647 646 645 645 645 645 645
667 667 666 666 665 665 664 663 662 662 661 660 659 658 658 657 656 655 654 653 652 651 650 650 649 649 649 648 648 646 645 645 646 646 646 646 646 646 647 647 647 648 649 650 650 650 650 650 650 650 650 650 650 649 649 649 650 650 650 650 650 650 650 650 650 650 650 650 650 649 649 649 649 649 648 648 648 647 646 646 645 645 644 644 644 644
667 666 665 665 664 664 663 662 661 660 660 659 658 657 656 655 654 653 652 650 650 649 648 647 647 646 646 646 645 644 644 643 643 643 643 643 643 644 644 645 645 646 647 647 647 648 649 649 649 649 648 648 647 647 648 648 648 648 648 648 649 649 649 649 649 649 649 649 649 648 648 648 648 648 648 647 647 646 646 645 645 644 644 643 643 643
666 665 664 664 663 662 661 660 660 659 658 657 656 655 655 653 652 651 650 649 648 647 647 646 645 645 644 643 643 642 642 641 641 641 640 640 640 641 642 643 643 644 644 645 645 646 646 646 646 646 646 646 645 646 646 647 647 647 647 647 647 648 648 648 648 648 648 648 648 647 647 647 647 647 647 647 646 646 645 645 644 644 643 643 642 641
665 664 663 662 662 661 660 659 658 657 656 655 655 653 652 651 650 649 648 647 646 645 645 644 643 642 641 640 640 639 639 639 638 638 638 638 638 639 640 640 641 642 642 643 643 644 644 644 644 644 644 644 644 644 645 645 645 645 646 646 646 646 646 647 647 647 647 647 647 646 646 646 646 646 646 646 646 646 645 645 644 644 643 643 642 641
664 662 661 661 660 659 659 658 657 656 655 654 653 651 650 650 648 647 646 645 645 644 643 642 641 640 639 638 637 637 636 636 636 636 636 635 636 637 638 639 639 640 640 641 641 642 642 642 642 642 643 643 643 643 643 643 644 645 645 645 645 645 645 645 645 646 646 646 645 645 645 645 645 645 645 645 645 645 645 645 644 644 643 643 642 641
662 661 660 659 658 657 656 655 655 654 653 652 651 650 649 648 647 646 645 644 643 642 642 641 640 639 638 636 635 635 634 634 633 634 633 633 634 635 635 636 637 638 638 639 639 640 640 640 641 641 641 642 642 642 642 642 642 643 644 644 644 644 644 644 644 645 645 645 645 645 645 645 645 645 645 645 645 645 645 644 644 644 643 642 642 641
661 660 659 658 657 655 655 654 653 652 651 651 650 649 648 647 646 645 644 643 642 641 640 640 639 638 636 635 633 633 632 632 631 632 632 632 632 633 634 635 635 636 636 637 637 637 638 639 639 639 639 640 641 641 640 640 641 642 642 643 643 643 643 643 643 643 644 644 644 644 644 644 644 644 644 644 644 644 644 644 644 644 643 642 642 641
659 658 657 656 655 654 653 652 651 650 650 649 648 647 647 646 645 644 643 642 641 640 639 638 637 636 635 633 632 631 631 630 630 630 630 630 631 631 632 633 633 634 634 635 635 636 636 637 637 637 638 639 639 639 639 639 640 640 641 641 642 642 642 642 642 642 643 643 643 643 643 643 643 643 643 643 643 643 644 643 643 643 643 642 642 641
658 656 655 655 653 652 651 650 650 649 648 647 647 646 645 644 644 643 642 641 640 638 637 636 635 634 632 631 630 630 630 629 629 629 629 630 630 630 630 631 631 632 632 633 633 634 635 635 635 636 637 637 638 638 638 638 639 639 639 640 640 640 640 640 641 641 641 641 642 642 642 642 642 642 642 642 642 643 643 643 643 643 643 643 642 642
656 655 654 653 652 651 650 649 648 648 647 646 645 645 644 643 642 641 640 639 638 637 636 635 633 632 630 629 629 629 628 628 628 628 628 628 628 628 629 629 630 630 630 631 631 632 633 633 634 635 635 636 636 636 636 636 637 638 638 638 639 639 639 639 639 640 640 640 640 641 641 641 642 642 642 642 642 642 642 643 643 643 643 643 643 642
655 654 653 652 651 650 649 648 647 647 646 645 644 643 642 641 640 640 639 638 637 636 635 633 632 631 629 629 628 628 627 627 626 626 626 626 626 627 627 627 628 628 629 629 630 630 631 632 632 633 634 634 634 634 635 635 636 636 637 637 637 638 638 638 638 638 639 639 640 640 640 641 641 641 641 641 641 641 642 642 642 643 643 643 643 643
654 653 652 651 650 649 648 647 646 645 645 643 642 641 640 640 639 638 637 636 635 635 633 632 631 630 629 628 627 626 626 625 625 625 625 625 625 625 625 626 626 627 627 628 629 629 630 630 631 631 632 633 633 633 633 634 635 635 635 636 636 636 636 636 636 637 638 638 639 639 639 640 640 640 640 640 640 641 641 642 642 642 643 643 643 643
653 652 651 650 649 648 647 646 645 644 643 642 641 640 638 637 637 636 635 634 634 633 632 631 630 629 628 626 625 625 624 624 623 623 623 623 623 624 624 625 625 626 626 627 628 628 629 629 629 630 630 631 631 632 632 633 633 634 634 635 635 635 635 635 635 636 636 637 637 638 638 639 639 639 640 640 640 640 640 641 642 642 643 643 643 643
652 651 650 649 648 646 645 644 644 643 641 640 639 638 636 635 635 634 634 633 632 631 630 630 629 628 627 625 625 624 623 622 622 622 622 622 622 622 623 623 624 625 625 626 626 627 627 628 628 628 629 630 630 631 631 632 632 633 633 633 634 634 634 634 634 635 635 636 636 637 637 638 638 639 639 640 640 640 640 640 641 642 642 643 643 643
651 650 649 647 646 645 644 643 642 641 640 639 637 636 635 634 634 633 633 632 631 630 629 629 628 627 626 625 624 623 622 622 621 620 620 620 621 621 622 622 623 624 625 625 625 626 627 627 627 627 627 628 628 629 630 630 631 632 632 632 632 632 633 633 633 634 634 635 635 635 636 637 637 638 638 639 639 640 640 640 640 641 642 642 643 643
Wind_Speed
32 31 30 29 28 28 27 26 26 26 27 27 26 26 26 26 26 26 27 27 27 28 28 29 30 30 31 31 31 31 30 29 28 29 30 31 32 33 33 34 34 34 33 33 33 33 32 32 31 31 31 30 30 30 30 29 29 28 28 28 28 29 31 31 32 32 31 32 32 32 33 33 33 33 33 33 33 33 33 33 34 34 36 37 38 39
30 29 28 27 27 27 27 26 26 26 26 27 27 26 27 27 27 27 28 28 28 29 29 30 31 32 33 34 34 34 33 32 31 31 31 31 32 32 33 33 33 33 33 33 33 33 32 32 31 31 31 31 30 30 30 30 29 29 28 28 28 28 29 30 32 32 32 32 33 33 33 33 33 34 34 34 34 34 34 34 34 34 34 35 36 38
29 28 27 26 26 26 26 26 26 26 27 27 27 27 27 28 28 28 28 28 29 29 29 30 30 31 32 33 34 34 34 33 32 32 32 32 32 32 33 33 33 33 33 33 33 33 33 32 32 31 31 31 31 31 30 30 30 29 29 28 28 28 28 29 30 31 32 32 33 33 33 33 33 33 34 34 35 35 35 35 35 34 34 34 35 36
28 27 27 26 25 26 26 27 27 27 27 27 27 28 28 28 29 29 29 29 29 29 29 30 30 30 30 31 32 32 32 32 32 32 32 32 32 32 33 33 33 34 34 34 34 33 33 33 32 32 32 32 31 31 31 31 30 30 29 29 29 28 28 28 28 29 30 31 32 32 32 33 33 33 33 34 34 35 36 36 36 36 35 34 34 34
27 26 27 26 26 26 27 27 27 26 26 26 27 27 28 28 29 29 29 29 29 29 29 29 29 29 29 29 30 31 31 31 31 31 31 31 32 32 33 33 34 34 34 34 34 33 33 33 33 33 33 32 32 32 31 31 30 30 29 29 29 29 28 28 28 29 30 30 31 32 32 33 33 33 33 33 34 34 35 36 36 36 36 35 35 34
27 27 26 26 26 26 27 26 26 25 25 26 26 27 27 28 28 28 28 28 29 29 29 29 29 29 29 29 30 30 30 30 30 30 31 31 32 32 33 33 33 33 34 34 34 34 33 33 33 33 33 33 32 32 31 31 30 30 29 29 29 29 29 28 29 29 29 30 30 31 32 33 33 33 33 33 33 33 34 35 36 36 36 36 35 34
27 27 26 26 26 26 25 25 26 25 25 25 25 26 26 26 26 26 27 28 28 29 29 29 29 29 29 29 29 29 29 30 30 30 30 31 31 31 32 32 33 33 33 33 33 33 33 33 33 33 33 33 32 32 31 31 30 29 29 29 28 29 29 29 29 29 29 30 30 31 31 32 33 33 33 33 33 33 33 34 35 36 36 36 35 35
26 27 26 25 25 25 25 25 26 25 24 23 23 23 23 24 24 25 26 27 28 28 28 28 28 28 28 28 28 29 29 29 29 29 29 30 30 30 31 31 31 32 32 32 32 32 32 32 32 32 32 32 31 31 30 30 29 29 28 28 28 28 29 29 29 29 29 30 30 30 31 32 33 33 33 33 33 33 33 33 34 34 35 35 35 35
26 26 26 26 25 24 24 25 26 25 23 22 22 22 22 23 24 25 25 26 26 25 25 25 26 27 27 27 28 28 28 28 28 28 29 29 29 29 30 30 30 30 31 31 31 31 31 31 31 31 31 30 30 30 29 29 28 28 28 28 28 28 29 29 29 29 29 30 30 31 31 32 32 33 33 33 33 33 33 33 33 33 34 34 35 35
26 26 26 26 26 24 23 24 25 26 24 22 22 22 22 23 24 25 25 26 25 25 24 24 25 26 26 27 27 27 27 28 28 28 28 28 28 29 29 29 29 29 29 29 30 30 30 30 30 30 30 30 29 29 28 28 28 27 27 27 28 28 28 28 29 29 29 29 30 30 31 32 32 33 33 33 33 33 33 33 32 32 33 34 34 35
26 26 26 25 25 25 24 24 24 24 23 22 22 23 24 23 23 23 23 24 25 25 24 24 24 25 25 25 25 26 26 27 27 28 28 28 28 28 29 29 29 29 29 29 29 29 29 29 29 29 29 29 29 28 28 27 27 26 26 27 27 27 27 27 27 28 28 28 29 29 30 31 32 32 33 33 33 33 33 33 32 32 32 33 34 34
24 24 23 24 24 23 23 23 22 21 21 20 19 20 22 23 23 22 22 22 24 24 24 24 24 25 24 24 24 24 24 25 25 26 27 27 28 28 28 29 29 29 29 29 29 29 29 29 29 28 28 28 28 27 27 26 26 26 26 26 26 26 26 26 27 27 27 27 27 28 28 29 30 31 32 32 33 33 33 33 32 31 31 32 33 33
24 23 22 23 22 21 21 20 19 19 19 18 18 17 19 21 22 21 21 22 23 24 23 24 24 25 25 24 24 23 23 23 24 25 26 26 27 28 28 28 29 29 29 29 29 29 30 29 29 28 27 27 27 26 26 26 26 26 26 26 26 26 26 26 26 26 26 26 26 27 27 28 28 29 30 31 31 32 32 32 32 31 31 31 32 32
23 22 21 20 20 19 18 17 16 17 19 20 20 21 22 22 21 20 20 21 23 24 23 23 23 24 25 24 24 23 23 23 24 24 25 26 27 27 27 28 28 29 29 29 30 31 31 30 29 28 28 28 28 28 28 29 28 28 27 27 26 26 26 26 26 26 26 26 26 26 26 26 27 28 28 29 30 31 32 32 31 31 30 30 31 31
20 19 17 15 16 17 17 17 18 19 21 22 22 23 23 22 21 20 20 20 22 23 22 22 23 24 24 23 23 23 23 23 23 24 25 26 27 27 26 27 28 28 29 29 30 31 31 30 29 29 30 30 31 31 31 31 30 29 28 27 26 26 26 26 26 26 25 25 25 25 25 26 26 26 27 27 28 29 30 31 31 30 30 30 30 30
19 17 14 13 14 17 19 19 19 20 21 22 22 21 21 20 21 21 20 20 21 21 19 18 18 18 20 22 22 22 22 23 23 23 24 25 26 26 25 25 26 27 28 28 29 30 31 30 30 30 31 32 32 32 31 30 29 28 27 26 26 26 26 26 26 25 25 25 25 25 25 25 25 26 26 26 27 28 29 29 30 30 29 29 28 28
18 16 15 14 15 18 20 20 20 20 21 20 20 20 20 20 21 21 21 20 20 18 16 14 8 6 10 17 19 18 19 21 21 22 22 23 25 25 24 24 24 26 27 28 29 29 30 30 30 30 31 32 32 31 30 29 28 27 26 26 26 26 26 26 26 25 25 25 25 25 25 25 25 25 25 25 25 26 27 28 29 29 29 28 27 27
16 16 16 15 16 18 19 19 19 19 20 20 20 20 21 21 21 21 21 20 19 17 15 14 10 6 4 9 14 16 16 18 19 19 20 21 23 24 23 23 24 25 27 28 29 29 29 29 30 30 31 31 31 30 29 28 27 26 26 26 26 26 26 26 25 25 25 25 25 25 25 25 25 25 25 25 24 24 25 26 27 28 28 28 27 26
14 15 16 16 16 17 18 18 19 19 19 20 20 20 20 21 21 21 20 20 19 18 17 15 14 13 12 14 17 18 16 16 17 17 17 18 20 22 22 21 22 24 26 28 28 29 28 29 29 30 30 30 30 29 28 27 26 26 26 26 26 26 26 25 25 25 25 25 25 25 25 24 24 24 24 24 24 24 24 24 25 26 27 27 26 26
17 16 16 16 16 16 17 18 20 20 20 21 21 20 19 20 20 20 20 20 20 20 19 18 17 17 18 20 21 20 18 16 15 15 15 17 19 21 20 20 21 23 25 27 28 28 28 28 29 30 30 30 29 28 27 26 26 26 26 26 25 25 25 25 25 25 25 25 25 25 24 24 24 24 24 23 24 24 24 24 24 25 25 25 25 25
21 21 20 18 17 16 17 19 21 22 22 21 20 19 19 19 19 19 19 19 20 20 20 19 19 20 21 21 21 21 19 16 15 14 14 15 17 20 20 19 20 22 25 27 28 28 27 28 29 30 30 30 29 28 27 26 26 25 25 25 25 25 25 25 25 25 25 24 24 24 24 24 24 24 23 23 23 23 23 24 24 24 24 24 24 23
25 25 25 24 22 21 22 23 25 25 23 21 20 19 19 19 19 19 20 20 20 19 20 20 22 23 23 23 23 22 20 18 17 16 13 12 15 19 19 19 19 21 23 26 27 27 27 27 28 29 30 29 28 27 27 26 25 25 25 25 25 25 25 25 25 25 24 24 24 24 24 24 24 24 24 23 23 23 23 23 24 24 24 24 23 22
28 28 28 27 26 26 26 27 27 26 25 23 22 22 22 22 22 22 22 22 22 22 23 24 25 25 24 24 24 24 22 20 20 18 15 8 11 18 20 18 18 19 22 25 26 26 26 26 28 29 29 28 27 26 26 25 25 24 24 24 24 24 24 24 24 24 24 24 24 24 24 24 24 24 24 24 23 23 22 23 23 23 24 23 23 21
30 30 30 30 30 30 29 28 27 27 26 25 26 26 27 28 28 27 27 26 25 24 24 24 23 23 23 24 23 23 23 22 20 19 16 12 14 19 20 18 17 19 22 24 25 24 24 26 27 27 27 27 26 26 25 24 24 24 24 24 24 24 24 24 24 24 24 24 24 24 23 23 23 24 24 24 23 23 22 22 22 23 23 23 22 21
30 31 31 32 32 32 32 30 29 28 28 28 28 29 30 30 30 30 29 27 25 23 21 20 18 18 19 21 20 20 22 21 21 19 16 14 17 20 21 19 18 19 21 23 23 23 23 25 26 26 26 26 26 25 25 24 24 24 23 23 24 24 24 24 24 24 24 24 23 23 23 23 23 23 23 23 23 23 22 22 22 22 23 23 23 22
32 33 34 35 35 34 33 32 31 30 30 30 30 30 29 28 27 25 24 22 20 19 17 14 12 14 18 18 17 18 20 20 20 21 19 16 16 18 21 20 19 19 20 22 22 21 22 23 25 25 25 25 25 25 24 24 24 23 23 23 23 23 23 23 23 23 23 23 23 23 22 22 22 22 22 23 23 22 22 22 21 21 22 23 23 22
35 35 36 36 36 35 34 33 33 32 32 32 32 31 29 27 23 19 16 15 16 15 13 8 7 10 14 14 15 17 19 19 20 21 21 19 16 17 20 20 19 19 20 20 21 21 21 22 23 24 24 24 24 25 24 24 24 23 23 23 23 23 23 23 23 23 23 22 22 22 22 22 21 21 21 21 22 22 22 21 21 21 21 22 22 22
36 37 37 38 37 37 36 34 33 33 33 33 33 32 31 28 23 17 12 12 13 13 11 7 6 6 7 9 14 18 19 19 19 21 21 19 15 16 20 20 19 18 18 18 19 20 20 21 22 23 23 23 24 24 25 25 24 23 23 22 22 22 22 22 22 22 22 22 21 21 21 21 21 20 20 20 20 21 21 21 21 20 20 21 22 22
35 37 37 38 38 37 35 33 32 32 32 32 32 31 29 27 24 20 17 16 14 12 11 10 10 9 8 13 17 19 19 20 20 20 20 17 15 17 21 19 18 17 16 15 16 18 19 21 22 23 23 23 24 24 25 25 24 23 23 22 22 21 21 21 21 21 21 21 21 21 20 20 20 20 20 20 20 20 20 20 20 20 19 20 21 22
32 33 34 34 34 33 32 31 31 31 32 31 29 28 26 25 24 23 22 20 17 14 12 13 13 13 13 13 11 11 14 19 21 20 20 17 15 17 20 18 18 17 15 11 9 9 13 17 20 21 22 22 23 24 24 24 23 23 22 21 20 20 20 20 20 20 20 20 20 20 20 19 19 19 19 19 19 19 19 20 19 19 19 20 20 21
28 28 28 29 29 30 29 30 30 30 30 28 27 26 24 23 23 23 23 21 19 18 16 15 16 16 15 8 3 3 5 15 19 19 20 18 16 17 19 17 17 17 16 12 4 1 5 9 13 16 17 19 20 21 21 21 21 20 20 19 19 19 18 18 18 19 19 19 19 19 19 18 18 18 18 18 18 19 19 19 19 19 19 19 19 20
27 26 25 26 26 27 27 27 27 27 26 25 24 24 23 22 21 21 21 21 20 20 20 20 20 19 18 12 9 7 6 14 17 17 19 18 18 19 19 17 16 17 17 17 12 6 4 3 7 11 12 14 16 17 18 18 17 17 17 17 18 18 18 18 18 19 19 19 19 19 19 18 18 18 18 18 18 18 18 18 18 18 18 18 18 19
26 25 25 25 25 25 25 25 24 23 22 22 22 21 20 19 19 19 19 20 20 20 21 21 22 21 21 19 17 17 18 20 20 18 18 18 17 16 17 16 16 16 16 17 17 14 10 7 9 12 12 13 14 15 15 16 16 16 16 17 18 18 18 18 19 19 20 20 20 20 20 19 19 18 17 17 17 17 17 17 17 17 17 17 18 18
21 21 21 21 21 21 21 20 20 19 19 18 17 16 16 16 16 17 18 19 20 22 22 22 23 22 21 19 18 20 22 24 23 21 19 19 17 15 16 16 15 15 14 14 15 15 14 14 14 13 13 14 14 15 15 16 16 16 16 17 18 18 19 19 19 20 20 20 21 21 21 20 20 19 18 17 17 16 16 15 16 16 16 16 17 17
16 16 15 15 15 15 15 15 14 14 14 14 14 14 15 16 18 19 20 22 23 24 25 25 25 25 23 20 17 18 21 24 24 22 20 20 19 17 15 15 16 15 13 13 12 12 11 14 15 14 12 13 14 16 16 16 17 17 17 17 18 18 19 19 19 20 20 20 21 21 21 21 20 19 18 17 17 16 15 14 15 15 15 15 16 17
15 15 15 16 16 16 16 17 17 17 18 18 19 19 20 22 23 23 24 25 26 26 27 27 28 27 25 24 23 23 24 26 25 22 21 21 21 18 15 15 16 16 15 14 13 11 10 11 13 14 13 10 11 13 16 16 16 16 17 17 18 18 18 18 18 19 20 20 21 21 21 20 20 19 18 16 16 15 15 14 14 15 15 15 16 17
13 13 14 15 16 17 17 18 19 20 20 21 22 22 23 24 25 25 26 26 26 26 27 27 27 26 25 26 26 28 29 29 27 24 22 22 22 20 18 16 17 17 17 16 15 13 12 9 9 10 11 10 9 11 14 14 15 15 16 16 17 17 17 17 17 18 19 20 20 20 20 20 19 18 17 15 15 16 15 14 14 14 14 14 14 17
14 14 15 16 16 16 17 18 18 19 19 20 21 22 23 23 24 24 24 23 22 21 21 22 22 23 24 26 28 31 32 32 30 28 25 23 23 22 20 18 18 19 19 18 17 16 14 8 5 5 5 9 13 14 15 14 14 14 15 15 16 16 16 16 16 17 18 19 19 20 20 19 19 18 17 16 16 17 17 16 15 14 14 14 12 14
16 16 17 17 17 17 16 17 17 18 19 19 20 21 22 22 23 23 22 21 21 21 21 21 21 22 23 25 27 29 32 33 32 30 28 25 23 22 21 20 19 19 20 20 19 18 16 11 8 5 3 6 10 14 15 15 14 14 14 14 15 15 15 15 15 16 17 18 19 19 19 19 19 18 17 16 16 16 16 16 15 14 13 14 13 11
17 17 17 18 18 17 17 17 18 19 19 20 20 20 21 22 22 23 24 24 23 23 22 22 22 22 23 24 25 26 29 31 31 31 29 26 24 22 21 21 20 20 20 20 19 19 18 16 15 14 13 10 10 11 12 14 14 14 13 12 12 13 14 14 15 15 16 17 18 18 19 19 18 18 17 16 15 14 14 14 14 13 12 12 13 12
17 18 18 19 19 19 19 19 20 21 22 22 22 22 21 21 21 21 22 23 22 21 21 21 22 22 22 23 24 25 26 28 29 30 29 27 25 23 22 22 22 21 20 19 19 19 19 18 17 17 16 15 14 13 13 14 14 14 12 11 11 12 13 14 14 14 15 16 17 17 18 18 18 18 17 16 15 14 13 13 13 12 11 11 12 12
18 18 19 20 21 21 22 23 23 23 23 22 21 20 20 19 19 19 19 20 20 20 20 20 19 20 20 21 22 23 24 25 26 28 28 27 26 25 24 24 23 22 21 20 19 19 19 19 18 18 17 16 15 14 14 15 15 14 13 13 13 13 13 13 13 13 14 15 15 16 17 17 18 18 17 16 14 13 12 12 11 10 10 10 11 11
19 20 21 22 22 23 23 23 22 21 21 20 19 19 19 19 18 18 18 17 18 19 19 19 18 18 18 19 19 20 20 22 23 24 25 25 25 24 25 25 24 24 22 20 18 18 18 19 19 18 18 17 16 14 14 14 15 15 15 15 14 12 10 11 12 12 12 13 14 15 15 16 17 17 17 16 15 13 12 11 10 9 8 9 10 10
20 21 22 22 22 22 22 21 20 19 19 17 17 18 19 19 19 18 17 17 17 18 19 19 19 18 17 17 17 17 17 18 19 20 21 22 22 23 24 25 25 25 23 21 18 16 16 17 18 18 19 18 17 16 15 14 14 14 15 16 15 14 12 12 12 12 12 13 14 14 15 15 16 16 16 16 15 13 12 10 9 8 8 8 9 9
20 21 21 21 20 20 20 19 19 19 18 18 17 17 19 20 20 18 17 17 17 18 19 20 18 16 14 14 14 14 14 15 16 18 19 20 21 22 23 24 25 25 24 22 20 18 16 15 15 17 17 17 17 16 16 15 14 15 15 16 16 17 18 17 16 14 14 14 15 15 15 15 15 15 15 15 15 13 11 10 9 8 8 8 8 7
19 19 19 19 19 18 18 18 18 18 17 17 17 18 19 20 20 19 18 17 17 18 19 19 17 13 10 10 11 12 12 13 14 16 18 19 21 22 23 24 24 24 23 23 22 21 19 17 16 15 15 15 15 16 16 16 15 15 15 16 16 17 18 18 17 17 16 16 16 16 15 15 15 14 14 15 14 13 11 10 8 8 7 7 7 7
17 17 17 17 16 16 16 17 16 16 16 17 17 18 19 20 20 19 18 17 17 17 17 17 15 12 10 10 11 12 12 13 14 15 16 18 19 21 21 22 23 23 23 22 22 22 21 21 19 16 14 13 12 13 15 16 15 15 15 16 16 16 16 17 17 17 17 17 17 16 16 15 14 14 14 15 14 13 12 10 8 7 7 6 6 6
17 16 16 16 16 16 16 16 16 16 16 17 18 19 21 21 21 19 19 18 17 16 15 15 14 14 15 16 16 16 15 15 15 15 16 16 17 18 19 20 20 21 21 21 21 21 22 22 21 20 17 14 12 11 12 13 15 15 16 16 16 15 16 17 17 17 17 17 17 17 16 16 15 14 14 14 13 12 11 10 8 8 7 7 6 6
17 17 17 17 17 17 16 16 16 17 17 18 19 20 21 22 21 20 19 19 18 16 15 14 14 15 15 16 17 17 16 16 15 15 15 16 16 16 16 17 17 18 18 19 19 20 20 21 22 22 21 19 16 13 12 12 13 14 15 16 15 15 16 16 17 17 17 17 17 17 17 17 16 16 15 13 12 11 11 10 9 8 7 7 7 6
17 18 18 18 18 17 17 17 17 17 18 18 19 20 20 20 19 18 17 16 15 14 13 13 14 14 13 14 14 14 13 13 13 14 15 15 15 14 14 15 15 14 14 14 15 15 15 15 17 20 22 21 20 17 14 13 13 13 14 14 15 15 15 16 16 16 16 16 17 17 17 17 17 16 14 13 12 12 12 11 10 10 9 8 7 7
18 18 18 17 17 17 16 16 17 17 18 18 18 17 16 14 13 13 13 13 13 13 14 15 15 14 14 14 14 13 13 13 13 14 14 15 14 14 14 13 13 12 10 8 7 7 6 5 7 11 16 19 21 20 18 16 14 13 12 13 14 15 15 15 15 15 15 16 16 17 17 17 17 16 15 13 11 10 10 11 11 11 11 10 9 9
Wind_Direction
279 281 282 283 284 284 283 283 283 284 284 284 284 283 283 282 281 280 279 278 277 276 276 276 276 276 277 278 279 279 279 278 276 275 274 273 272 272 273 274 275 276 277 278 279 280 281 281 282 283 283 283 283 282 282 282 281 281 281 280 280 280 279 278 277 276 276 276 277 277 277 277 277 277 277 277 276 276 275 273 272 271 269 267 265 264
279 281 282 282 283 283 282 282 282 282 283 283 283 282 282 281 280 279 278 276 275 275 275 275 275 275 275 275 276 276 276 276 275 274 272 272 272 272 272 273 273 274 275 276 277 278 279 280 281 281 282 282 282 282 281 281 281 281 280 280 280 279 279 278 277 276 275 275 275 275 275 275 276 276 276 277 277 277 277 276 275 274 273 271 269 266
281 282 282 282 282 282 282 282 282 281 281 281 281 280 280 279 278 277 276 275 274 273 273 273 273 274 274 274 274 274 274 274 273 272 271 271 271 271 271 272 273 273 274 275 277 277 279 279 280 281 281 281 281 281 281 281 281 281 281 280 280 280 279 279 278 277 276 275 274 274 274 274 274 274 274 275 276 276 277 277 277 276 276 274 273 271
281 282 282 283 283 281 280 281 281 280 279 278 278 278 277 276 275 275 274 274 273 273 272 272 272 272 272 272 272 273 272 272 272 271 270 270 270 270 271 271 272 272 273 274 275 277 278 279 280 280 281 281 281 282 282 281 281 281 281 281 281 281 280 280 279 278 277 275 275 274 274 274 273 273 273 273 274 274 275 275 276 276 276 277 277 276
278 279 281 283 282 281 279 279 279 279 278 277 276 275 275 274 273 273 273 273 272 272 272 272 271 271 271 272 272 272 272 271 271 270 270 269 269 269 270 270 271 271 272 273 274 276 277 278 279 280 281 281 282 282 282 282 282 282 282 282 282 282 282 282 281 280 278 277 276 275 274 274 273 273 273 272 272 272 272 273 274 275 275 277 278 279
277 278 279 279 279 278 278 277 277 277 277 276 275 274 273 272 272 272 271 271 271 271 271 271 271 271 271 271 271 272 272 271 271 270 270 269 269 269 269 269 270 270 271 272 274 275 276 278 279 280 281 282 282 283 283 283 283 283 283 283 283 283 283 283 283 282 281 280 278 277 276 275 274 274 273 272 272 271 271 271 272 273 274 275 278 280
276 275 276 275 274 274 274 274 274 274 274 274 274 274 273 272 271 270 269 269 270 270 271 271 271 271 271 270 270 271 271 271 270 270 269 269 269 268 268 269 269 270 271 272 273 274 275 277 278 279 280 281 282 283 283 283 283 283 283 283 283 283 283 283 283 283 282 282 281 280 278 276 275 274 273 273 272 271 271 271 271 271 272 273 276 279
273 273 272 272 272 272 272 271 271 271 270 271 272 273 273 272 271 270 270 269 269 269 270 270 271 270 270 269 269 269 269 270 270 269 269 268 268 267 267 268 268 269 270 271 272 273 274 275 276 278 279 279 280 281 281 282 282 283 283 283 283 284 284 284 284 284 284 283 283 282 280 278 276 274 273 273 273 272 271 271 270 270 270 271 273 276
269 271 271 270 270 271 272 272 271 270 268 268 269 271 273 273 274 274 273 271 270 269 268 268 269 269 269 268 268 268 268 268 268 268 268 268 267 267 267 267 268 268 269 270 270 271 272 273 274 275 276 277 278 279 280 280 281 282 283 284 284 285 285 285 285 286 285 284 283 282 280 279 277 276 275 274 273 272 271 271 270 269 268 269 270 273
265 267 269 269 268 268 269 270 271 270 268 267 266 266 268 270 273 275 275 273 271 270 268 267 266 267 268 267 267 266 266 267 266 266 266 266 266 267 267 267 267 268 269 269 270 270 271 272 273 274 275 276 277 278 279 280 281 282 283 284 284 285 286 286 286 286 285 284 283 282 280 279 278 276 275 274 273 273 272 271 270 269 267 267 268 270
264 265 266 267 268 267 266 266 268 269 268 266 265 264 264 263 265 269 272 273 273 271 269 266 265 265 266 267 267 266 265 265 265 265 265 264 265 265 266 266 267 268 268 269 270 270 271 271 272 272 273 275 276 277 278 279 280 281 282 283 284 285 285 285 286 286 285 285 284 283 281 279 278 276 275 274 273 272 272 272 270 269 267 266 267 268
262 263 263 265 266 266 265 264 265 266 266 265 264 263 262 261 260 262 264 268 271 271 270 268 266 264 264 265 266 266 264 263 262 262 263 263 263 264 265 266 266 267 268 268 269 269 269 269 270 271 272 273 274 275 276 277 278 279 280 281 283 284 284 285 285 286 286 286 285 284 283 281 279 277 275 273 272 272 272 272 271 269 267 265 265 267
259 260 261 262 263 262 262 263 264 264 263 261 260 260 262 263 262 260 260 262 265 268 269 269 268 266 264 263 263 263 263 262 261 261 261 262 262 263 264 265 266 267 268 268 268 268 269 269 269 270 270 271 272 273 274 275 276 277 278 280 281 283 284 284 285 286 286 286 286 286 285 283 281 279 276 274 272 272 272 273 272 270 268 266 265 265
257 258 259 259 260 260 259 259 260 261 261 260 259 261 264 266 266 263 261 262 264 266 267 268 268 267 266 264 261 260 260 260 261 262 261 261 261 262 262 263 264 266 267 268 268 269 270 270 270 270 270 270 271 271 272 273 275 276 278 279 281 282 283 284 285 285 286 286 286 286 286 285 283 281 278 276 273 272 272 273 273 272 270 267 265 264
255 256 257 257 258 258 258 258 257 258 260 260 261 263 265 266 266 264 262 263 265 266 267 267 267 267 266 264 260 257 256 257 258 259 260 260 260 261 261 262 263 264 265 266 267 268 270 269 269 269 270 270 271 272 273 274 275 277 278 279 280 281 283 284 284 285 285 285 285 286 286 286 285 283 281 278 275 273 273 273 274 274 272 269 266 263
254 254 255 256 258 259 259 259 258 258 260 262 263 263 264 263 263 262 261 262 264 266 266 266 267 268 268 266 261 255 252 251 252 255 257 259 260 260 259 259 261 262 263 263 264 266 267 268 268 268 269 270 271 272 273 274 275 276 277 278 279 281 282 283 283 284 284 284 285 285 286 286 286 285 283 280 277 274 273 273 275 275 275 272 268 264
252 253 254 256 258 259 260 260 259 260 261 262 262 261 260 260 260 260 260 261 263 264 264 263 263 268 272 271 266 258 251 246 246 249 253 256 258 258 258 257 258 260 261 262 262 263 265 266 266 267 268 269 271 272 272 273 274 275 275 276 278 280 281 282 283 283 283 284 284 285 286 286 286 286 285 283 280 277 274 273 274 276 277 275 271 268
249 251 252 254 256 258 259 260 260 260 261 262 262 262 261 259 259 258 258 259 259 260 261 261 260 259 269 273 272 267 257 246 243 245 249 253 256 257 257 255 255 257 259 261 261 262 263 264 265 266 267 269 270 271 271 272 273 273 274 276 278 280 281 282 282 283 283 284 284 285 286 286 286 286 286 286 284 280 277 274 274 275 277 276 273 270
249 247 246 248 252 255 257 257 258 259 260 261 263 263 262 261 259 258 256 256 256 256 258 259 260 261 263 265 269 271 266 254 245 244 248 252 255 257 256 254 253 254 257 259 261 262 262 263 264 265 266 268 269 269 270 271 271 273 274 276 278 279 280 281 282 282 283 283 284 285 285 285 285 286 286 286 285 283 279 276 274 275 276 275 273 270
267 260 250 247 248 252 254 255 256 258 260 262 262 262 261 261 260 258 256 256 255 255 256 256 258 260 262 265 267 268 266 258 249 245 248 252 256 257 256 253 251 253 255 258 261 262 262 263 264 265 266 267 268 268 269 270 270 272 274 276 278 279 280 280 281 282 282 283 284 284 284 284 284 284 285 285 284 283 280 278 277 277 277 276 272 268
275 272 267 261 257 256 260 261 260 260 262 262 261 259 259 260 260 258 257 256 255 255 254 255 256 259 262 264 266 266 263 256 247 244 249 254 257 257 256 253 250 251 255 258 261 262 262 263 264 265 266 267 268 269 269 269 270 271 273 275 277 278 279 280 281 281 282 283 284 284 284 283 283 283 283 283 283 282 281 279 279 279 280 280 275 268
272 271 270 267 263 261 263 264 265 265 264 261 258 256 257 258 259 259 258 257 255 253 252 253 256 259 262 263 263 263 260 253 246 243 251 256 257 257 257 253 250 250 254 258 262 263 263 263 264 265 266 267 268 269 269 270 270 271 273 275 276 277 279 280 280 281 282 283 284 284 284 284 283 283 282 282 282 281 280 278 278 278 280 282 279 271
266 267 267 266 264 262 262 264 265 266 265 261 257 255 256 256 257 258 258 256 255 254 254 255 258 260 260 260 260 259 256 251 246 244 248 251 257 258 259 254 250 249 253 257 261 262 263 263 263 265 266 267 267 268 269 269 270 271 273 274 276 277 278 279 280 281 282 283 284 285 285 285 284 283 283 282 282 281 280 278 276 275 277 281 281 275
263 263 264 265 264 264 263 264 265 266 265 263 260 258 258 258 257 257 258 257 256 255 256 256 257 258 258 258 258 256 254 249 244 240 241 247 256 260 260 255 251 250 254 257 260 261 262 263 264 265 266 266 267 267 268 268 269 271 272 274 275 276 278 279 280 281 283 284 285 285 285 285 285 284 283 283 282 282 280 278 275 273 273 277 279 277
264 263 263 264 265 265 265 265 265 266 266 264 263 262 261 260 258 258 258 257 256 256 255 255 255 255 256 256 255 254 253 248 241 235 235 247 257 259 259 255 251 251 255 258 260 261 261 262 264 265 265 266 266 267 268 268 269 270 272 273 274 275 277 278 280 281 283 284 285 286 286 286 286 285 284 283 282 282 281 278 275 272 271 273 276 276
266 265 265 266 267 266 266 265 265 265 265 265 264 262 261 259 257 255 254 254 254 255 255 254 254 256 258 257 255 253 253 248 240 232 231 241 253 259 259 255 251 251 256 259 260 260 260 261 262 264 264 265 266 267 268 268 269 270 272 273 274 275 276 278 279 281 282 284 285 286 287 287 287 286 285 283 282 281 281 279 276 272 270 270 273 274
269 268 267 267 267 266 265 265 266 267 267 267 267 267 267 266 263 258 252 250 251 251 251 253 258 261 261 260 257 256 254 248 240 233 230 233 244 255 257 255 252 252 255 258 260 259 258 259 261 262 263 265 266 267 268 269 270 271 272 273 274 274 275 277 279 280 282 283 285 287 288 288 288 288 286 285 283 282 281 279 276 272 269 268 269 271
272 270 268 267 266 265 265 266 267 269 270 271 272 274 275 276 276 272 264 261 256 250 245 247 256 261 262 261 261 260 256 249 241 234 229 227 235 249 253 254 252 250 253 258 261 260 258 258 259 261 262 264 265 267 268 269 270 270 271 272 273 274 275 276 278 279 281 283 284 286 288 289 290 290 288 287 286 284 282 280 277 272 268 265 265 267
275 272 269 267 266 265 265 266 267 269 271 272 273 275 276 277 278 278 279 280 273 258 245 248 253 258 262 265 266 264 259 252 245 236 227 223 231 245 250 251 249 247 249 256 262 263 259 257 257 259 260 262 263 264 266 267 268 269 270 271 272 273 275 276 277 279 280 282 284 286 288 290 291 291 291 290 288 286 284 281 278 273 266 261 260 262
279 274 270 266 264 264 264 266 268 269 270 271 272 273 273 272 272 273 275 277 275 266 255 254 256 258 261 266 268 264 258 253 247 237 223 219 229 243 246 247 245 243 242 248 260 266 262 260 259 258 257 259 260 261 263 264 266 267 269 271 273 274 275 276 278 279 281 283 284 286 287 289 291 292 293 292 291 288 285 283 279 273 265 258 255 256
281 276 270 266 264 264 265 267 267 268 268 268 269 269 268 268 267 267 268 269 269 268 266 264 262 260 258 258 257 254 255 258 252 238 224 218 227 240 242 242 242 240 235 232 228 287 267 265 262 259 255 255 256 257 259 261 263 265 268 270 272 274 276 278 280 282 283 284 285 286 287 289 291 293 294 295 294 291 287 284 280 274 265 257 252 251
281 276 271 267 266 266 266 265 264 264 264 265 265 265 265 265 265 265 264 264 265 267 269 270 269 265 259 253 249 252 259 265 260 245 228 222 229 238 238 237 239 239 235 229 227 234 254 269 268 264 255 252 253 255 257 259 261 264 266 268 271 273 277 279 281 282 283 285 286 286 288 289 291 294 296 297 296 294 290 285 280 274 265 255 249 248
279 275 270 267 265 264 263 261 260 260 261 262 262 263 263 264 265 266 265 264 264 264 265 267 269 267 262 256 252 254 258 262 261 252 234 226 228 235 236 235 235 237 236 231 231 235 244 253 265 267 263 258 256 257 259 260 262 263 265 266 269 272 276 279 281 282 283 285 287 288 289 291 293 295 297 298 298 296 292 286 281 275 265 253 246 244
288 280 274 271 269 267 266 265 264 264 265 265 265 266 267 269 270 271 271 269 267 265 263 262 264 264 261 257 255 256 258 259 258 253 241 228 226 231 234 231 231 232 233 233 233 236 243 249 255 262 265 264 262 260 261 262 263 264 265 265 267 270 274 277 279 281 283 285 287 289 290 292 294 297 298 300 301 299 295 289 285 280 269 254 244 239
318 311 303 300 299 297 296 295 293 291 289 288 287 286 286 284 282 279 276 273 271 268 265 262 261 261 259 257 258 259 261 261 260 254 243 229 225 228 231 230 229 228 229 230 231 233 241 245 247 250 257 263 264 263 262 262 264 265 265 265 265 267 271 274 276 279 281 283 285 287 289 292 294 297 299 302 303 302 298 293 289 286 277 260 244 236
336 333 330 328 326 324 322 319 316 312 308 304 301 298 294 290 285 281 277 274 272 270 268 265 262 260 258 259 260 261 262 263 261 255 243 233 227 226 228 231 230 228 226 228 230 232 237 243 244 245 248 255 262 264 264 264 264 263 263 262 263 265 268 272 275 276 278 279 281 284 287 290 292 294 297 300 302 302 300 294 291 290 286 270 249 235
329 326 323 322 321 318 314 312 310 308 306 304 301 299 295 291 286 282 278 275 272 269 266 265 263 261 260 261 261 261 261 262 260 254 245 236 229 225 225 231 233 229 225 226 229 231 233 238 243 244 244 246 252 259 262 263 262 260 259 259 261 263 267 270 273 274 274 276 278 281 284 287 288 291 294 298 302 304 303 299 295 296 296 286 260 238
320 317 314 313 312 311 308 307 306 306 306 305 304 303 301 298 294 290 285 281 278 275 272 271 270 270 270 270 268 265 263 261 257 252 245 238 230 225 225 231 235 233 228 227 228 229 229 231 236 238 240 244 247 251 255 259 260 259 259 260 261 262 265 268 270 271 272 273 276 279 281 284 286 288 291 295 300 304 306 304 302 302 304 304 287 252
316 314 312 312 311 310 308 306 305 305 305 306 306 307 307 307 305 303 301 298 296 293 291 289 287 285 284 281 276 271 267 262 256 250 244 237 232 228 228 231 235 236 233 230 228 228 228 229 230 230 233 245 248 249 251 253 254 257 259 262 262 262 263 266 267 269 270 271 273 275 278 281 284 286 288 292 297 301 304 305 304 304 306 311 308 284
313 311 309 308 307 306 304 303 302 303 304 305 307 308 309 310 311 310 309 308 304 301 298 297 296 294 292 288 283 276 270 264 257 249 242 237 233 233 233 234 235 236 234 230 227 226 227 230 233 236 239 244 247 249 250 249 251 253 257 259 260 261 263 265 267 268 269 270 271 273 275 279 282 284 285 288 292 296 300 303 305 305 304 307 310 306
308 307 305 304 303 301 299 298 299 301 303 305 306 307 309 311 311 312 312 310 306 301 299 298 297 295 292 288 284 279 273 266 258 250 243 238 236 237 239 239 238 237 236 231 227 225 226 230 234 237 239 242 246 249 251 250 250 251 252 253 257 262 267 268 268 268 269 269 270 271 274 277 279 281 283 285 288 292 297 302 305 304 302 303 306 306
304 303 302 301 299 298 297 297 298 299 301 302 303 304 306 308 309 309 309 307 304 300 297 294 291 289 288 286 283 279 273 265 258 250 244 240 239 240 241 242 241 239 235 230 226 225 226 229 232 235 237 238 242 247 251 251 251 250 250 252 257 264 269 268 267 268 267 267 269 270 271 273 276 278 281 283 286 290 294 299 302 302 300 302 305 305
301 300 300 299 298 296 296 295 295 295 296 296 296 297 300 302 303 303 302 300 297 295 292 289 286 284 284 284 282 278 272 265 257 250 244 241 240 241 243 243 242 240 235 229 226 226 227 229 231 233 235 237 238 242 247 250 251 250 249 250 253 258 263 264 265 266 265 267 268 269 270 271 274 277 279 281 284 287 290 293 296 296 295 297 303 304
299 299 300 299 298 296 294 292 290 289 288 288 289 291 295 298 299 298 296 293 291 290 288 285 282 279 277 277 278 278 274 268 260 252 247 244 244 245 245 245 244 241 236 229 226 227 229 230 231 233 235 235 236 239 243 246 248 248 248 249 248 248 250 258 263 264 264 265 266 268 269 271 273 275 277 278 280 282 284 287 289 289 288 290 296 300
297 298 299 299 298 296 292 288 286 285 284 284 285 287 291 295 295 294 292 290 289 289 288 284 279 272 266 266 270 273 273 269 264 258 253 250 248 247 246 244 243 241 238 233 230 229 229 230 232 233 234 233 233 236 239 242 244 245 246 247 247 247 249 254 258 259 260 261 263 265 268 269 270 270 271 273 276 278 280 281 281 280 279 282 286 290
296 296 296 296 295 293 290 288 287 286 286 285 286 288 290 292 292 291 289 288 289 290 290 285 278 268 261 261 265 269 270 267 262 258 255 252 250 247 245 243 241 239 237 235 235 235 234 233 233 233 231 229 230 233 235 237 239 241 244 246 247 248 250 251 253 253 254 256 259 262 265 265 264 262 263 266 270 273 275 275 273 270 270 272 275 279
295 295 296 297 296 295 294 294 292 291 290 290 289 290 291 291 291 290 288 286 287 289 291 291 287 283 281 281 278 273 269 265 261 257 253 251 248 245 242 240 240 239 238 238 238 238 238 238 236 233 228 225 228 231 233 233 234 237 241 244 245 246 248 249 250 251 252 253 255 257 259 258 255 253 256 261 265 268 270 269 265 260 258 260 262 264
298 299 301 302 301 300 298 298 297 295 294 293 293 292 292 290 289 288 286 284 283 283 286 290 292 293 291 287 279 271 265 261 259 257 253 250 246 242 238 236 235 236 238 239 240 241 242 242 240 236 231 227 228 231 233 231 231 233 237 240 242 244 246 248 249 250 250 250 251 253 253 250 247 247 250 253 258 262 263 262 257 251 247 247 246 246
301 302 303 302 301 300 298 297 296 296 295 294 294 293 291 289 287 285 282 280 278 276 277 281 286 288 286 281 276 270 263 259 257 256 254 249 244 238 233 230 230 230 233 235 237 239 241 242 241 240 237 233 232 233 234 232 231 232 235 237 239 242 245 248 249 249 248 247 248 249 249 248 247 247 245 244 248 254 257 256 251 243 236 233 232 232
301 301 301 299 297 295 294 294 294 294 293 293 292 291 289 288 287 284 283 280 277 275 276 280 284 287 288 288 286 280 271 264 259 257 254 249 241 233 226 223 222 222 225 228 231 232 234 236 238 239 240 237 235 234 235 237 237 236 235 235 236 238 242 245 247 247 246 244 244 244 244 244 245 244 241 237 240 246 252 253 248 240 231 223 219 219
300 299 297 295 294 293 292 293 293 292 292 292 291 291 293 296 299 298 295 291 288 286 287 286 286 285 286 289 290 288 281 273 266 260 255 249 240 228 219 215 213 213 215 219 222 223 224 227 233 237 238 238 236 235 233 236 237 237 236 234 234 236 238 242 244 245 244 242 240 240 239 238 237 235 232 230 232 238 247 250 248 241 232 222 213 209